Temperature
17 17 18 18 18 18 18 18 18 18 18 18 18 18 18 18 18 18 18 18 18 18 18 18 18 18 18 18 18 18 18 18 18 18 18 18 18 18 18 18 18 17 18
17 17 18 18 18 18 18 18 18 18 18 18 18 18 18 18 18 18 18 18 18 18 18 18 18 18 18 18 18 18 18 18 18 18 18 18 18 18 18 18 18 18 18
17 17 18 18 18 18 18 18 18 18 18 18 18 18 18 18 18 18 18 18 18 18 18 18 18 18 18 18 18 18 18 18 18 18 18 17 17 18 18 18 18 18 18
17 17 17 18 18 18 18 18 18 18 18 18 18 18 18 17 17 17 17 17 17 17 18 17 17 18 18 18 18 18 18 18 18 18 17 17 17 18 18 18 18 18 18
17 17 17 18 18 18 18 18 18 18 17 17 17 17 17 17 17 17 17 17 17 17 17 17 17 17 17 17 18 18 18 18 18 18 17 17 17 18 18 18 18 18 18
17 17 17 18 17 17 17 17 17 17 17 17 17 17 17 17 17 17 17 17 17 17 17 17 17 17 17 17 17 18 18 18 18 17 17 17 17 18 18 18 18 18 18
17 17 17 17 17 17 17 17 17 17 17 17 17 17 17 17 16 17 17 17 17 17 17 17 17 17 17 17 17 17 18 18 17 17 17 17 17 18 18 18 18 18 18
17 17 17 17 17 17 17 17 17 17 17 16 16 16 16 16 16 16 16 16 16 16 16 16 17 17 17 17 17 17 17 17 17 17 17 17 17 18 18 18 18 18 18
17 17 17 17 17 17 17 17 17 16 16 16 16 16 16 16 16 16 16 16 16 16 16 16 16 16 17 17 17 17 17 17 17 17 17 17 17 18 18 18 18 18 18
17 17 17 17 16 16 16 16 16 16 16 16 16 16 16 16 15 15 15 15 15 15 16 16 16 16 16 17 17 17 17 17 17 17 17 17 17 17 18 18 18 18 18
17 17 17 17 17 16 16 16 16 16 16 16 16 16 15 15 15 15 15 15 15 15 15 15 15 16 16 16 16 17 17 16 17 17 17 17 17 17 17 18 17 18 18
18 17 17 17 17 16 16 16 16 16 15 15 15 15 15 15 15 15 15 15 15 15 15 15 15 15 16 16 16 16 16 16 16 17 17 17 17 17 17 17 17 17 17
18 17 17 17 17 16 16 16 16 16 15 15 15 15 15 15 15 15 15 15 14 14 15 14 15 15 15 15 15 16 16 16 16 16 16 17 17 17 17 17 17 17 17
18 17 17 17 17 17 16 16 16 16 16 15 15 15 15 14 14 15 14 14 14 14 14 14 14 15 15 15 15 16 16 16 16 16 16 17 17 17 17 17 17 17 17
18 17 17 17 17 17 16 16 16 15 15 15 15 14 14 14 14 14 14 14 14 14 14 14 14 15 15 15 15 15 15 15 16 16 16 17 17 17 17 17 17 17 17
18 18 17 17 17 16 16 16 16 15 15 15 14 14 14 14 14 14 14 14 14 14 14 14 14 14 14 15 15 15 15 15 15 15 16 16 17 17 17 17 17 17 17
18 18 17 17 17 16 16 16 15 15 15 15 14 14 14 14 14 14 14 14 14 14 14 14 14 14 14 14 15 15 15 15 15 15 16 16 16 16 17 17 17 17 17
18 18 18 17 17 16 16 16 15 15 15 14 14 14 14 14 14 13 13 14 13 13 13 13 14 14 14 14 15 15 15 15 15 15 16 16 16 16 16 17 17 17 17
18 18 18 17 17 16 16 16 15 15 15 14 14 14 14 14 13 13 13 13 13 13 13 13 14 14 14 14 14 15 15 15 15 15 15 16 16 16 16 16 16 17 17
18 18 18 17 17 16 16 15 15 15 14 14 14 14 13 13 13 13 13 13 13 13 13 13 13 13 14 14 14 14 14 15 15 15 15 15 16 16 16 16 16 16 16
19 18 18 17 17 16 16 15 15 15 14 14 14 14 13 13 13 13 13 13 13 13 13 13 13 13 13 14 14 14 14 15 15 15 15 15 15 15 16 16 16 16 16
19 18 18 17 17 16 16 15 15 15 14 14 14 13 13 13 13 13 13 13 13 13 13 13 13 13 13 13 14 15 15 15 15 15 15 15 15 15 15 16 16 16 16
19 18 18 17 17 16 16 15 15 14 14 14 14 13 13 13 13 13 13 13 13 13 13 13 13 13 13 13 14 14 15 16 15 15 14 15 15 15 15 15 15 15 16
19 19 18 17 17 16 16 15 15 15 14 14 14 13 13 13 13 13 13 13 13 13 13 13 13 13 13 13 14 14 14 14 15 15 15 15 14 15 15 15 15 15 16
19 19 18 17 17 16 16 16 15 14 14 14 14 14 13 13 13 13 13 13 13 13 13 13 13 13 13 13 13 14 14 14 14 15 15 14 14 14 15 15 15 15 15
19 19 18 18 17 17 16 16 15 15 14 14 14 14 14 13 13 13 13 13 13 13 13 13 13 13 13 13 13 13 14 14 14 14 15 14 14 14 14 14 15 15 15
Wind_Speed
7 9 10 9 9 9 9 9 9 8 8 8 7 6 5 5 5 4 4 3 2 2 1 1 2 2 2 3 3 3 3 3 3 3 3 3 3 3 3 3 3 1 4
10 10 11 9 9 9 9 8 8 8 7 6 6 5 5 4 4 3 2 2 1 1 1 2 2 2 2 2 3 3 2 3 3 3 3 1 1 2 3 4 5 5 4
10 11 11 10 9 9 8 8 8 7 7 6 5 5 4 4 3 2 1 1 1 2 2 2 3 3 2 2 3 3 3 3 3 2 5 2 2 3 2 3 4 3 2
10 10 10 10 9 9 8 8 8 8 7 7 6 5 4 4 3 2 1 1 1 2 2 3 3 4 4 3 3 3 3 3 3 5 4 2 1 5 2 3 3 3 3
10 10 11 9 9 8 8 8 8 7 7 6 5 5 5 4 3 3 3 3 3 3 3 4 4 4 4 4 4 3 3 3 4 6 3 2 2 4 3 3 3 3 3
10 10 11 9 9 8 8 8 7 7 6 6 6 5 5 4 3 3 3 4 4 4 4 4 4 5 5 5 5 4 4 4 6 3 2 2 1 3 2 3 2 2 2
10 10 11 9 8 8 8 7 7 6 6 5 5 5 5 4 4 4 4 4 4 4 4 5 4 5 5 5 5 5 4 5 6 3 3 2 1 2 2 2 2 1 1
9 9 10 9 7 7 6 6 6 5 5 4 5 5 5 5 5 4 4 4 4 4 5 5 5 5 5 5 5 5 4 7 5 4 3 2 2 1 2 2 2 1 2
8 7 7 8 8 7 6 5 5 4 4 4 4 4 4 4 4 4 4 4 5 5 5 5 4 4 5 5 5 5 5 5 7 4 4 2 2 1 2 1 1 1 2
7 6 5 6 5 5 6 5 4 4 4 4 3 4 3 1 0 1 3 3 5 5 6 5 4 4 5 5 4 4 5 7 6 5 4 0 2 2 2 1 0 1 1
6 5 4 4 4 3 3 4 3 3 3 1 1 2 3 3 3 2 5 6 5 5 5 5 4 4 5 4 3 4 6 5 4 5 4 3 1 2 2 1 1 2 2
6 5 4 3 3 3 2 2 1 1 1 2 3 2 3 4 4 5 1 2 3 4 4 2 4 6 8 4 3 4 4 4 5 5 2 2 2 3 3 2 2 2 3
5 4 3 3 2 1 1 0 1 1 1 2 3 3 3 4 3 4 4 2 3 4 5 3 5 5 5 3 4 4 4 5 4 4 1 2 2 3 3 2 3 3 3
5 3 2 2 2 1 1 1 1 1 2 2 3 4 4 3 4 4 4 5 5 4 4 5 4 4 5 5 5 4 3 4 4 3 1 2 2 3 2 2 3 4 4
5 4 3 2 1 1 1 0 0 1 2 3 3 4 4 4 4 4 4 4 5 4 4 4 5 4 5 4 4 4 4 4 4 4 1 2 1 3 3 2 4 4 4
5 5 4 3 2 1 1 1 0 1 1 3 3 4 4 4 4 4 5 4 4 5 5 5 5 4 4 4 4 4 4 4 4 4 3 2 2 2 2 3 4 5 4
5 5 4 3 2 2 1 0 0 1 1 2 2 4 4 4 5 4 5 4 4 5 5 4 5 4 4 4 4 4 3 3 3 4 3 3 3 4 3 3 4 4 4
5 5 4 3 3 2 1 1 0 1 1 1 2 3 4 4 5 5 4 4 5 5 4 4 4 4 3 3 3 3 2 2 3 3 3 3 3 3 4 4 4 4 4
6 6 5 4 3 2 1 1 0 0 1 1 2 3 4 5 5 5 4 5 5 4 4 4 3 4 3 3 3 2 2 2 2 3 3 3 3 2 3 5 5 4 4
7 6 5 4 3 3 2 2 1 0 0 1 2 3 4 4 5 5 4 5 5 4 4 3 3 3 3 3 3 1 1 1 1 1 2 2 2 2 3 3 4 6 5
8 7 6 5 5 3 2 2 1 1 1 1 2 3 3 4 4 4 4 4 4 4 4 4 3 3 2 2 2 1 1 1 1 1 1 1 2 2 2 2 3 3 5
8 8 7 6 5 4 2 1 1 1 1 1 1 2 3 4 4 4 4 4 4 3 3 3 3 3 2 2 3 2 1 2 1 1 1 1 1 2 2 2 2 3 3
8 8 7 7 6 5 4 2 1 1 1 1 1 2 3 3 4 4 5 5 4 4 3 3 3 3 2 2 2 2 2 1 0 2 1 1 1 1 1 1 1 2 3
8 8 8 8 7 6 5 3 2 2 2 2 2 2 2 2 3 4 4 4 4 3 3 3 2 2 3 2 1 2 3 2 1 1 1 1 2 1 2 1 1 1 2
8 8 8 8 7 6 5 4 3 3 2 2 2 2 2 2 2 3 4 4 3 3 3 3 2 3 2 3 2 2 2 2 3 2 2 1 1 1 1 1 0 0 1
7 8 8 8 7 6 6 5 4 3 3 2 2 2 2 2 2 3 3 4 3 3 3 3 2 2 2 2 3 2 2 2 2 2 2 2 1 1 1 1 0 0 0
Wind_Direction
139 135 127 127 122 119 117 116 113 110 109 109 109 115 119 119 119 123 120 106 98 82 65 55 48 42 40 32 24 23 25 23 21 17 14 21 22 21 15 6 324 36 65
134 131 128 125 121 117 114 112 109 106 104 102 100 103 105 104 108 107 96 80 60 38 23 25 16 11 12 10 5 7 12 12 8 6 341 260 102 39 21 5 351 24 46
131 129 131 123 118 114 112 108 103 98 95 92 89 94 100 98 97 89 78 70 22 7 3 2 356 349 351 350 349 352 352 355 352 340 282 277 107 87 26 11 15 27 44
130 129 124 121 118 114 110 105 98 92 86 82 78 78 79 78 74 71 50 33 360 343 347 352 346 339 335 341 339 335 334 338 332 293 276 348 7 75 25 13 19 28 37
128 124 119 124 118 112 106 99 95 90 85 80 72 64 60 56 52 43 26 7 359 348 341 340 337 332 330 330 328 324 326 321 296 275 320 331 345 61 12 6 16 27 35
128 125 120 122 114 108 102 97 92 86 80 74 66 57 48 42 31 21 6 358 353 347 346 341 340 329 323 325 323 319 319 309 277 280 301 295 320 69 2 353 7 25 37
127 123 122 117 112 107 103 97 90 81 74 68 59 50 38 28 19 8 359 350 345 341 341 341 341 335 325 318 317 315 317 298 280 283 278 281 9 40 344 347 357 25 48
126 124 122 119 113 110 106 97 87 76 67 59 48 39 29 20 14 4 356 352 347 343 338 335 338 333 327 319 312 309 312 296 267 272 276 275 45 339 314 336 343 31 62
127 127 127 129 131 125 107 92 80 70 60 49 36 26 16 13 10 4 355 351 345 341 335 330 332 328 326 319 313 311 304 296 279 267 267 265 85 297 290 299 335 61 72
131 131 129 126 130 130 128 107 78 65 57 48 41 23 2 320 299 331 316 4 338 335 335 329 321 317 313 308 310 306 291 270 259 263 262 131 74 284 286 300 263 141 107
141 137 136 135 130 126 117 113 129 118 92 177 134 85 289 314 332 301 21 8 343 337 336 336 327 313 294 261 270 295 270 269 273 269 262 55 343 285 274 265 192 164 152
150 144 144 149 149 148 121 127 141 69 60 336 354 358 334 338 335 328 57 351 338 321 287 313 306 269 264 268 220 239 270 271 267 260 236 82 303 286 264 234 191 169 167
148 146 153 165 155 156 149 112 45 15 11 344 355 352 335 326 317 319 318 302 304 295 299 294 274 281 288 290 292 279 289 288 275 271 234 98 288 284 263 228 195 178 171
160 166 172 184 174 180 158 120 304 339 349 0 354 341 337 337 325 333 319 329 317 316 315 302 295 291 288 281 276 277 271 275 276 278 284 90 282 279 258 213 183 175 173
178 179 182 194 191 177 161 219 293 357 348 3 357 337 338 331 330 331 321 325 315 314 304 302 294 299 291 292 286 284 280 270 273 268 248 122 279 276 257 212 186 184 177
184 180 179 190 198 217 205 205 329 4 353 342 351 337 334 334 328 327 323 323 319 313 311 301 293 293 286 285 286 284 278 269 261 268 262 194 184 233 245 219 195 188 184
186 183 181 188 200 209 203 159 347 324 335 347 351 337 338 339 329 329 326 322 319 313 304 299 297 291 286 280 276 277 270 267 256 255 250 254 216 186 191 214 208 196 191
189 184 175 185 200 197 192 201 241 336 350 357 354 342 338 339 338 333 326 326 323 314 308 302 296 292 287 286 283 278 267 259 259 257 248 236 234 222 179 177 194 194 188
190 186 183 183 187 177 170 181 222 300 351 352 351 348 342 342 336 331 331 329 326 318 309 301 297 297 293 290 277 271 271 260 263 249 239 230 220 221 202 163 172 170 178
190 189 188 175 176 162 167 183 163 203 303 353 358 359 350 341 341 336 328 332 329 320 315 304 297 290 292 282 278 279 281 252 242 259 250 221 214 211 207 186 177 167 162
189 191 186 181 170 170 174 196 207 226 290 332 354 357 346 343 342 334 327 335 330 329 321 311 295 277 276 274 261 248 212 203 172 176 230 229 188 177 185 189 190 182 168
189 189 186 184 176 179 180 197 233 298 288 326 323 335 342 343 341 332 330 327 331 326 319 312 300 286 276 273 272 261 230 185 158 147 169 196 187 160 176 176 179 184 191
191 187 186 184 177 176 174 171 172 195 252 258 299 322 333 331 336 335 333 329 328 321 325 309 293 275 276 269 286 283 277 254 136 151 132 144 134 142 161 159 188 188 189
192 185 187 184 181 177 181 194 216 257 292 309 307 317 314 318 328 334 332 329 326 324 321 313 309 287 272 261 250 278 296 313 266 189 156 121 121 140 137 143 181 203 200
185 182 186 184 185 185 193 196 225 253 288 300 297 309 309 326 323 331 327 328 326 323 322 319 310 289 273 272 264 255 256 256 259 250 204 181 157 147 133 133 174 185 211
180 180 184 186 188 191 199 206 223 246 268 284 289 301 299 310 315 336 330 330 329 326 319 311 297 284 282 274 270 262 256 256 251 236 221 203 200 168 162 149 172 158 142
Height
1516 1517 1518 1519 1521 1522 1523 1524 1525 1526 1526 1527 1527 1528 1528 1528 1528 1529 1529 1529 1530 1530 1529 1529 1529 1529 1528 1528 1527 1527 1527 1526 1525 1525 1524 1524 1523 1522 1522 1521 1520 1520 1518
1517 1518 1519 1521 1522 1523 1524 1525 1526 1527 1527 1527 1528 1528 1528 1528 1529 1529 1529 1529 1530 1530 1530 1529 1529 1529 1528 1528 1528 1527 1527 1526 1526 1525 1525 1524 1524 1523 1522 1521 1521 1520 1519
1518 1519 1520 1521 1523 1524 1525 1526 1526 1527 1528 1528 1528 1528 1529 1529 1529 1529 1529 1529 1529 1529 1529 1529 1529 1529 1528 1528 1528 1527 1527 1526 1526 1526 1525 1526 1525 1523 1523 1522 1521 1520 1519
1519 1520 1522 1522 1524 1525 1526 1526 1527 1528 1528 1528 1528 1528 1529 1529 1529 1529 1529 1529 1529 1529 1529 1529 1528 1528 1528 1528 1527 1527 1527 1526 1526 1526 1527 1527 1526 1524 1523 1522 1521 1520 1520
1520 1522 1522 1523 1525 1526 1526 1527 1527 1528 1528 1528 1529 1529 1529 1529 1529 1529 1529 1529 1529 1529 1528 1528 1528 1528 1528 1527 1527 1527 1526 1526 1526 1526 1526 1526 1525 1524 1523 1523 1522 1521 1520
1522 1523 1523 1524 1526 1527 1527 1528 1528 1528 1528 1528 1528 1529 1528 1528 1528 1528 1528 1528 1528 1528 1527 1527 1527 1527 1527 1527 1526 1526 1526 1526 1526 1527 1526 1525 1525 1524 1523 1523 1523 1522 1521
1523 1524 1525 1525 1527 1527 1528 1528 1529 1529 1529 1529 1529 1528 1528 1528 1528 1528 1527 1527 1527 1527 1526 1526 1526 1526 1526 1526 1526 1526 1525 1525 1526 1526 1526 1525 1525 1524 1524 1523 1523 1522 1522
1524 1526 1526 1526 1527 1528 1528 1529 1529 1529 1529 1529 1529 1528 1528 1528 1527 1527 1527 1526 1526 1526 1525 1525 1525 1525 1524 1524 1524 1524 1525 1525 1526 1526 1526 1525 1524 1524 1524 1523 1523 1523 1522
1525 1527 1528 1528 1529 1529 1529 1529 1529 1529 1529 1529 1529 1528 1528 1527 1527 1526 1526 1525 1525 1525 1524 1524 1524 1523 1523 1523 1523 1523 1523 1524 1524 1525 1526 1525 1524 1524 1524 1523 1523 1523 1523
1527 1528 1529 1529 1530 1531 1530 1530 1530 1530 1529 1529 1529 1528 1527 1527 1526 1526 1525 1524 1524 1523 1523 1522 1522 1522 1522 1521 1522 1522 1522 1523 1524 1524 1525 1525 1524 1524 1524 1524 1524 1523 1523
1528 1529 1530 1530 1531 1531 1531 1531 1530 1530 1529 1529 1529 1528 1527 1528 1528 1527 1525 1523 1522 1522 1521 1521 1520 1520 1520 1520 1520 1520 1521 1522 1523 1523 1524 1523 1523 1523 1523 1524 1524 1524 1524
1529 1530 1530 1531 1531 1531 1531 1531 1531 1531 1530 1530 1529 1528 1528 1527 1526 1525 1523 1522 1521 1520 1520 1519 1519 1519 1519 1520 1520 1519 1520 1521 1521 1522 1522 1521 1522 1523 1523 1523 1524 1524 1524
1529 1530 1531 1531 1531 1531 1532 1532 1531 1531 1530 1529 1529 1528 1527 1526 1526 1525 1524 1522 1521 1520 1520 1518 1518 1519 1519 1519 1518 1519 1519 1519 1520 1521 1521 1520 1521 1522 1522 1523 1523 1524 1524
1529 1530 1531 1531 1531 1532 1532 1532 1531 1531 1530 1530 1528 1527 1527 1526 1525 1524 1523 1521 1520 1519 1518 1517 1517 1517 1517 1517 1517 1517 1517 1517 1518 1519 1519 1519 1520 1521 1521 1522 1523 1524 1524
1529 1530 1530 1530 1531 1531 1531 1531 1531 1530 1530 1529 1527 1527 1526 1525 1524 1523 1522 1520 1519 1518 1517 1516 1516 1516 1515 1515 1516 1516 1516 1516 1516 1517 1517 1517 1518 1519 1520 1521 1522 1523 1524
1529 1530 1530 1530 1530 1530 1531 1531 1530 1530 1528 1528 1527 1526 1525 1524 1523 1522 1521 1519 1518 1517 1516 1515 1515 1514 1514 1514 1514 1514 1514 1514 1514 1515 1516 1516 1517 1518 1519 1520 1521 1523 1524
1529 1529 1530 1530 1530 1530 1530 1530 1529 1529 1528 1527 1526 1525 1524 1523 1522 1521 1519 1518 1517 1516 1515 1514 1514 1513 1513 1512 1512 1512 1512 1512 1513 1514 1514 1515 1516 1517 1518 1519 1520 1522 1523
1528 1529 1529 1529 1529 1529 1529 1528 1529 1528 1527 1526 1525 1524 1524 1522 1521 1519 1518 1517 1515 1514 1513 1513 1512 1512 1512 1511 1511 1511 1511 1511 1511 1512 1513 1514 1515 1516 1517 1518 1519 1521 1522
1526 1527 1528 1528 1528 1528 1528 1527 1527 1527 1526 1526 1525 1524 1523 1521 1520 1519 1517 1515 1515 1513 1512 1512 1512 1511 1511 1510 1510 1510 1510 1510 1510 1511 1512 1512 1513 1514 1516 1516 1518 1519 1521
1525 1526 1527 1527 1527 1527 1527 1527 1527 1526 1526 1525 1524 1523 1521 1520 1519 1517 1516 1515 1513 1512 1511 1511 1510 1509 1509 1509 1509 1509 1508 1508 1509 1509 1510 1511 1512 1513 1514 1516 1517 1518 1519
1523 1525 1526 1526 1526 1526 1526 1526 1526 1526 1526 1525 1524 1522 1521 1519 1518 1516 1515 1514 1512 1511 1510 1510 1509 1509 1508 1508 1509 1508 1508 1508 1508 1508 1509 1509 1510 1511 1513 1514 1516 1517 1518
1522 1523 1524 1524 1525 1525 1525 1526 1525 1525 1525 1524 1523 1521 1520 1519 1517 1516 1515 1513 1512 1510 1509 1508 1508 1508 1508 1508 1508 1508 1508 1509 1507 1508 1508 1508 1509 1510 1511 1513 1515 1516 1517
1520 1521 1522 1523 1524 1524 1524 1525 1524 1524 1524 1524 1523 1521 1520 1518 1517 1515 1514 1513 1511 1510 1509 1508 1507 1507 1507 1507 1507 1508 1508 1507 1507 1508 1507 1507 1508 1509 1510 1512 1513 1514 1516
1518 1519 1521 1522 1523 1523 1524 1524 1524 1524 1524 1524 1522 1521 1519 1518 1516 1514 1513 1512 1510 1509 1508 1507 1507 1506 1506 1507 1507 1506 1507 1507 1507 1507 1507 1507 1507 1508 1509 1510 1512 1513 1514
1516 1518 1519 1521 1522 1522 1523 1523 1523 1524 1524 1523 1522 1520 1519 1518 1516 1514 1513 1511 1510 1509 1508 1507 1506 1506 1506 1506 1506 1506 1506 1506 1506 1506 1506 1507 1507 1508 1508 1509 1510 1511 1513
1515 1516 1518 1519 1520 1521 1522 1522 1523 1523 1522 1522 1521 1520 1519 1518 1516 1514 1513 1511 1510 1509 1507 1506 1505 1505 1505 1505 1505 1506 1506 1506 1506 1506 1506 1506 1506 1507 1507 1507 1509 1510 1511